Weather in Gerbi

Russia / Khabarovsk Krai     50°48′19″N   134°07′07″E
temp.,
°C
wind,
m/s
gust,
m/s
humid.,
%
clouds,
%
prec.,
mm/h
press.,
hPa
HPBL,
m
27 february, sat
sat2701:00−22wsw22900 0.0 103326
04:00−22wsw22880 0.0 103321
07:00−22wsw228725 0.0 103220
10:00−16sw238063 0.0 1030122
13:00−9wsw2663100 0.0 1027587
16:00−7wsw3661100 0.0 1022817
19:00−12wnw128199 0.1 102025
22:00−12w258499 0.8 1018237
28 february, sun
sun2801:00−13w2495100 2.2 1015185
04:00−13wsw3994100 3.4 1013433
07:00−15wsw3894100 0.3 1015269
10:00−13sw489196 0.3 1016555
13:00−13sw697063 0.0 10171058
16:00−15sw687233 0.0 10191126
19:00−19sw598348 0.0 1022299
22:00−24sw479124 0.0 1025195
1 march, mon
mon101:00−28sw239342 0.0 102759
04:00−29sw229240 0.0 102932
07:00−30sw239234 0.0 103043
10:00−26sw358751 0.0 1031464
13:00−21sw486678 0.0 10291238
16:00−21wsw597342 0.0 10291357
19:00−24sw378582 0.0 1030160
22:00−27sw359156 0.1 1032106
2 march, tue
tue201:00−30sw229381 0.0 103346
04:00−31sw239077 0.0 103349
07:00−32wsw239070 0.0 103438
10:00−27wsw248865 0.0 1033236
13:00−22sw357243 0.0 10311051
16:00−20sw356446 0.0 10301211
19:00−25ssw23820 0.0 103042
22:00−28wsw12820 0.0 103220
3 march, wed
wed301:00−28w12850 0.0 103119
04:00−26w119435 0.0 102920
07:00−24w1198100 0.1 102721
10:00−18w1293100 0.4 1025216
13:00−14wsw3887100 0.5 1021958
16:00−13wsw41084100 0.9 1017985
19:00−16w2691100 0.3 1016258
22:00−18w2394100 0.4 1015110